[[{"header":{"parameterUnit":"m.s-1","parameterCategory":1,"la1":30.2991,"la2":30.254,"lo1":-89.0895,"lo2":-89.0444,"dy":0.0017,"dx":0.0017,"nx":28,"ny":28,"refTime":"2024-04-22T03:00:00:Z","depth":0,"parameterNumber":2,"parameterNumberName":"U-component_of_WINDS"},"data":[0,0,0,0,0,0,0,0,0,0,0,0,0,0,0,0,0,0,0,0,0,0,0,0,0,0,0,0,0,0,0,0,0,0,0,0,0,0,0,0,0,0,0,0,0,0,0,0,0,0,0,0,0,0,0,0,0,0,-0.4183,-0.4183,0,-0.4226,-0.4226,-0.4227,-0.4237,-0.4236,-0.4236,-0.4236,-0.4281,-0.4283,-0.4284,0,0,0,0,0,0,0,0,0,0,0,0,0,-0.4111,-0.4112,-0.4183,-0.4183,-0.4184,-0.4226,-0.4226,-0.4227,-0.4237,-0.4236,-0.4236,-0.4236,-0.4281,-0.4282,-0.4284,0,0,0,0,0,0,0,0,0,0,0,0,0,-0.4147,-0.4113,-0.4183,-0.4194,-0.4195,-0.4226,-0.4226,-0.4227,-0.4237,-0.4236,-0.4236,-0.4236,-0.428,-0.4282,-0.4285,-0.4307,0,0,-0.4291,-0.4292,0,0,0,0,0,0,0,0,-0.4145,-0.415,-0.4192,-0.4193,-0.4195,-0.4225,-0.4218,-0.4254,-0.4237,-0.4221,-0.4236,-0.4235,-0.4263,-0.4267,-0.4276,-0.4309,-0.4311,-0.4292,-0.4293,-0.4294,-0.4294,0,0,0,0,0,0,0,-0.4142,-0.4148,-0.42,-0.4192,-0.4194,-0.4197,-0.4202,-0.4225,-0.4244,-0.4222,-0.4223,-0.4228,-0.4264,-0.4274,-0.4277,-0.4312,-0.4291,-0.4293,-0.4295,-0.4296,-0.4368,-0.4369,0,0,0,0,0,0,-0.4138,-0.4146,-0.4198,-0.4201,-0.4168,-0.4199,-0.4204,-0.4216,-0.4244,-0.4248,-0.4228,-0.4228,-0.427,-0.4274,-0.4279,-0.4308,-0.4294,-0.4296,-0.4297,-0.4368,-0.4369,-0.4369,0,0,0,0,0,0,-0.4136,-0.4142,-0.4197,-0.4174,-0.4181,-0.4201,-0.4214,-0.4217,-0.4227,-0.4248,-0.4252,-0.4235,-0.427,-0.4275,-0.43,-0.431,-0.4297,-0.4299,-0.4367,-0.4368,-0.4369,-0.4367,0,0,0,0,0,0,-0.4134,-0.4142,-0.415,-0.4174,-0.4182,-0.4217,-0.4214,-0.4218,-0.4231,-0.4231,-0.4255,-0.4259,-0.427,-0.4297,-0.4303,-0.4313,-0.4301,-0.4366,-0.4368,-0.4369,-0.4367,-0.4368,-0.4369,0,0,0,0,0,-0.4131,-0.4148,-0.415,-0.4157,-0.4193,-0.4218,-0.4222,-0.4234,-0.4231,-0.424,-0.4254,-0.4258,-0.4308,-0.4299,-0.4306,-0.4317,-0.4366,-0.4367,-0.4368,-0.4366,-0.4368,-0.4369,0,0,0,0,0,0,-0.4125,-0.4151,-0.4154,-0.4179,-0.4196,-0.4219,-0.4231,-0.4236,-0.4254,-0.4254,-0.4268,-0.4274,-0.4298,-0.431,-0.43,-0.4341,-0.4337,-0.434,-0.4333,-0.4335,-0.4336,-0.4333,-0.4303,0,0,0,0,0,-0.4126,-0.4144,-0.4166,-0.4185,-0.4194,-0.4211,-0.4222,-0.423,-0.4248,-0.4256,-0.4272,-0.429,-0.431,-0.4323,-0.4342,-0.4368,-0.4374,-0.4379,-0.438,-0.4381,-0.4384,-0.44,-0.4403,-0.4374,-0.4374,-0.4373,0,0,-0.4129,-0.4146,-0.4156,-0.4184,-0.4199,-0.4217,-0.4217,-0.4236,-0.4251,-0.4259,-0.4284,-0.4296,-0.4318,-0.4344,-0.4356,-0.4354,-0.4393,-0.4383,-0.4384,-0.4386,-0.4402,-0.4404,-0.4407,-0.4374,-0.4374,-0.4374,0,0,-0.4145,-0.4158,-0.4177,-0.4191,-0.4213,-0.4224,-0.4228,-0.4251,-0.426,-0.4285,-0.4292,-0.431,-0.4343,-0.4359,-0.4371,-0.4393,-0.4398,-0.4399,-0.4406,-0.4422,-0.4424,-0.4426,-0.4436,-0.4439,-0.4401,-0.4401,-0.4401,0,-0.4146,-0.4174,-0.4185,-0.4205,-0.4218,-0.4226,-0.4246,-0.4259,-0.4286,-0.4295,-0.4293,-0.4336,-0.4351,-0.4381,-0.4387,-0.4396,-0.4403,-0.4397,-0.4423,-0.4425,-0.4427,-0.4436,-0.444,-0.4401,-0.4401,-0.4401,-0.4401,0,-0.4175,-0.4194,-0.4206,-0.4232,-0.4247,-0.4266,-0.4281,-0.4295,-0.4301,-0.4313,-0.434,-0.4358,-0.4382,-0.4389,-0.4396,-0.4421,-0.442,-0.442,-0.4416,-0.443,-0.4439,-0.4442,-0.4402,-0.4402,-0.4401,-0.4401,0,0,-0.4187,-0.422,-0.4224,-0.4237,-0.4262,-0.4277,-0.4297,-0.4321,-0.4332,-0.4351,-0.4369,-0.4398,-0.4398,-0.4412,-0.4421,-0.4434,-0.4453,-0.4433,-0.4434,-0.4437,-0.4483,-0.4483,-0.4487,-0.4455,-0.4456,-0.4457,-0.4482,0,-0.4206,-0.4242,-0.4254,-0.4284,-0.4303,-0.4312,-0.433,-0.4347,-0.4359,-0.4377,-0.4391,-0.4411,-0.441,-0.4419,-0.4432,-0.4447,-0.4462,-0.4446,-0.4474,-0.4475,-0.4469,-0.4492,-0.4492,-0.4514,-0.4485,-0.4486,-0.4486,0,-0.4233,-0.4253,-0.4285,-0.4308,-0.4317,-0.4333,-0.4356,-0.4372,-0.4393,-0.4401,-0.4417,-0.4425,-0.4447,-0.4442,-0.4474,-0.4462,-0.4474,-0.4483,-0.4485,-0.4489,-0.4482,-0.4497,-0.4522,-0.4526,-0.4491,-0.4491,-0.449,0,-0.4241,-0.4275,-0.4299,-0.4309,-0.4337,-0.4348,-0.436,-0.438,-0.4394,-0.4414,-0.4423,-0.4446,-0.4459,-0.4476,-0.449,-0.4484,-0.4522,-0.4516,-0.453,-0.453,-0.4538,-0.4537,-0.4566,-0.4544,-0.4544,-0.4544,-0.4544,0,-0.4262,-0.4281,-0.4302,-0.4317,-0.434,-0.4354,-0.4376,-0.4389,-0.4407,-0.4425,-0.4434,-0.4451,-0.4468,-0.4487,-0.4499,-0.4524,-0.453,-0.4537,-0.454,-0.4537,-0.4536,-0.4546,-0.4545,-0.4545,-0.4544,-0.4544,-0.4544,0,-0.4274,-0.4289,-0.4316,-0.434,-0.4347,-0.4362,-0.4384,-0.4399,-0.4411,-0.4434,-0.4441,-0.446,-0.4484,-0.45,-0.453,-0.4537,-0.4566,-0.4568,-0.4559,-0.456,-0.4573,-0.4572,-0.461,-0.4616,-0.4589,-0.4589,-0.4589,0,-0.4287,-0.4302,-0.4328,-0.4341,-0.4353,-0.4374,-0.4388,-0.4402,-0.4417,-0.4442,-0.4455,-0.4479,-0.4499,-0.4536,-0.4554,-0.4577,-0.4581,-0.4592,-0.4584,-0.4581,-0.4583,-0.4582,-0.4584,-0.4594,-0.4594,-0.4594,-0.4595,0,-0.4308,-0.4315,-0.4335,-0.4358,-0.4374,-0.4393,-0.4411,-0.4422,-0.4439,-0.4455,-0.448,-0.4495,-0.4526,-0.4551,-0.4576,-0.459,-0.4596,-0.4597,-0.4601,-0.4599,-0.4594,-0.4598,-0.4564,-0.4596,-0.4596,-0.4596,-0.4596,-0.4596,-0.4322,-0.4337,-0.4358,-0.438,-0.4396,-0.4413,-0.4429,-0.4444,-0.4464,-0.449,-0.4498,-0.4523,-0.4545,-0.458,-0.4594,-0.4615,-0.4613,-0.462,-0.4621,-0.4623,-0.4624,-0.4589,-0.4619,-0.4619,-0.4619,-0.4619,-0.4619,0,-0.4345,-0.436,-0.438,-0.4406,-0.4424,-0.4427,-0.4448,-0.4463,-0.4486,-0.4505,-0.4525,-0.4553,-0.4577,-0.4597,-0.4622,-0.4635,-0.4639,-0.4641,-0.4641,-0.4644,-0.4623,-0.4617,-0.4638,-0.4638,-0.4638,-0.4638,-0.4638,-0.4638,-0.436,-0.4385,-0.4394,-0.4428,-0.4442,-0.4467,-0.4479,-0.4496,-0.4512,-0.4543,-0.4563,-0.4576,-0.4596,-0.4623,-0.4645,-0.465,-0.466,-0.4662,-0.4668,-0.4648,-0.4646,-0.4644,-0.4638,-0.4664,-0.4664,-0.4688,-0.4689,-0.4689]},{"header":{"parameterUnit":"m.s-1","parameterCategory":1,"la1":30.2991,"la2":30.254,"lo1":-89.0895,"lo2":-89.0444,"dy":0.0017,"dx":0.0017,"nx":28,"ny":28,"refTime":"2024-04-22T03:00:00:Z","depth":0,"parameterNumber":3,"parameterNumberName":"V-component_of_WINDS"},"data":[0,0,0,0,0,0,0,0,0,0,0,0,0,0,0,0,0,0,0,0,0,0,0,0,0,0,0,0,0,0,0,0,0,0,0,0,0,0,0,0,0,0,0,0,0,0,0,0,0,0,0,0,0,0,0,0,0,0,5.1822,5.1822,0,5.1881,5.1882,5.1882,5.1831,5.1829,5.1827,5.1825,5.1882,5.1886,5.1889,0,0,0,0,0,0,0,0,0,0,0,0,0,5.1658,5.1662,5.1822,5.1822,5.1823,5.1881,5.1882,5.1883,5.1832,5.1829,5.1826,5.1824,5.1881,5.1885,5.189,0,0,0,0,0,0,0,0,0,0,0,0,0,5.1725,5.1663,5.1822,5.1805,5.1804,5.1881,5.1882,5.1883,5.1832,5.1829,5.1826,5.1823,5.188,5.1885,5.189,5.1986,0,0,5.1906,5.1909,0,0,0,0,0,0,0,0,5.1721,5.1731,5.1806,5.1806,5.1805,5.1846,5.1845,5.1917,5.1833,5.1821,5.1825,5.1821,5.1873,5.1878,5.1896,5.1989,5.1991,5.1907,5.191,5.1912,5.1914,0,0,0,0,0,0,0,5.1716,5.1728,5.1845,5.1808,5.1807,5.1792,5.1798,5.1859,5.1864,5.1822,5.1818,5.1826,5.1871,5.1891,5.1897,5.1992,5.1907,5.1911,5.1914,5.1917,5.2161,5.2164,0,0,0,0,0,0,5.1714,5.1724,5.1843,5.1847,5.1755,5.1798,5.1804,5.1836,5.1863,5.1864,5.1829,5.1824,5.1884,5.1891,5.1899,5.2009,5.1912,5.1917,5.192,5.2158,5.2162,5.2165,0,0,0,0,0,0,5.1711,5.1725,5.1841,5.1785,5.1798,5.1804,5.184,5.1839,5.1858,5.1868,5.1869,5.1849,5.1882,5.1892,5.1964,5.2011,5.1919,5.1924,5.2154,5.2159,5.2164,5.2233,0,0,0,0,0,0,5.1707,5.1725,5.1763,5.1786,5.1802,5.1907,5.1843,5.1842,5.1868,5.1861,5.1887,5.1888,5.188,5.1956,5.1969,5.2016,5.1928,5.2149,5.2156,5.2162,5.2226,5.224,5.2251,0,0,0,0,0,5.1701,5.178,5.1765,5.1779,5.1849,5.191,5.1918,5.1908,5.1872,5.1909,5.1915,5.1887,5.2004,5.1964,5.1978,5.2028,5.2146,5.2154,5.2161,5.2221,5.2237,5.2251,0,0,0,0,0,0,5.1762,5.1783,5.1766,5.1856,5.1881,5.1901,5.1947,5.1927,5.1962,5.1955,5.194,5.1946,5.2021,5.2032,5.1987,5.2119,5.2069,5.208,5.2109,5.2125,5.2137,5.2131,5.1933,0,0,0,0,0,5.1786,5.1834,5.185,5.1927,5.1941,5.1942,5.1968,5.1958,5.1983,5.1993,5.2005,5.2029,5.2071,5.2099,5.2138,5.2228,5.2231,5.2269,5.2281,5.2291,5.23,5.2344,5.236,5.219,5.219,5.219,0,0,5.1835,5.1853,5.1884,5.1939,5.1958,5.2006,5.1951,5.2006,5.204,5.2001,5.2069,5.2079,5.2105,5.2185,5.2221,5.2196,5.2347,5.2301,5.2309,5.2312,5.2353,5.2369,5.2383,5.2195,5.2194,5.2193,0,0,5.1949,5.197,5.2034,5.2053,5.2082,5.2082,5.2097,5.212,5.2124,5.2193,5.2163,5.2204,5.2277,5.2296,5.2315,5.2433,5.2408,5.2447,5.251,5.2553,5.2566,5.2578,5.2617,5.2631,5.2456,5.2456,5.2456,0,5.2007,5.208,5.207,5.2125,5.2148,5.2116,5.2179,5.2198,5.2238,5.2254,5.2226,5.2315,5.233,5.2413,5.2441,5.2459,5.2474,5.2443,5.2566,5.2577,5.2588,5.2624,5.2639,5.246,5.246,5.2459,5.2459,0,5.2147,5.2198,5.2246,5.2285,5.2314,5.2374,5.237,5.24,5.2387,5.2389,5.2457,5.2475,5.2515,5.2534,5.2523,5.2614,5.2597,5.2568,5.2517,5.2609,5.2642,5.2657,5.2466,5.2465,5.2463,5.2462,0,0,5.2302,5.2332,5.235,5.2365,5.2393,5.2431,5.2488,5.2528,5.2552,5.2581,5.2625,5.2687,5.2659,5.268,5.267,5.2709,5.2796,5.2674,5.2674,5.2693,5.2893,5.2913,5.293,5.2781,5.2783,5.2786,5.289,0,5.2414,5.2513,5.2503,5.2596,5.264,5.2609,5.2657,5.2678,5.2681,5.2718,5.2721,5.2763,5.2725,5.2737,5.2774,5.2778,5.2836,5.2771,5.2819,5.2821,5.281,5.2948,5.297,5.3068,5.2904,5.2906,5.2908,0,5.2559,5.2591,5.2688,5.2706,5.2724,5.2768,5.2801,5.2838,5.286,5.2859,5.2883,5.2865,5.2919,5.2868,5.294,5.2896,5.2915,5.292,5.2923,5.2925,5.2868,5.295,5.3099,5.3112,5.2929,5.2927,5.2926,0,5.2657,5.2725,5.279,5.2805,5.2829,5.2859,5.287,5.289,5.2913,5.2942,5.2956,5.2992,5.3011,5.3038,5.3029,5.2994,5.3101,5.3051,5.3099,5.3099,5.3121,5.312,5.3272,5.3139,5.3139,5.3139,5.3139,0,5.2782,5.2841,5.2834,5.2874,5.2939,5.2927,5.299,5.2997,5.3014,5.3053,5.3029,5.3065,5.3053,5.3089,5.3083,5.3141,5.3151,5.3149,5.3146,5.315,5.3149,5.316,5.3152,5.3143,5.3142,5.3141,5.3141,0,5.2902,5.29,5.2968,5.2984,5.299,5.3036,5.3049,5.3085,5.3086,5.3135,5.3146,5.3146,5.3186,5.3181,5.3227,5.3222,5.3293,5.3284,5.3286,5.3282,5.333,5.3324,5.3492,5.3511,5.3369,5.3371,5.3372,0,5.298,5.3025,5.3045,5.3069,5.3082,5.3122,5.3145,5.3134,5.3159,5.3186,5.3218,5.3256,5.3286,5.3351,5.3355,5.3388,5.3377,5.3434,5.3382,5.3383,5.3373,5.337,5.3372,5.3443,5.3444,5.3446,5.3447,0,5.3118,5.3114,5.3149,5.3182,5.3211,5.3237,5.326,5.3281,5.3272,5.3301,5.3341,5.3364,5.341,5.3446,5.3477,5.3487,5.3464,5.3463,5.3476,5.3478,5.3476,5.3474,5.331,5.3459,5.3458,5.3457,5.3456,5.3456,5.3217,5.3254,5.3272,5.3311,5.3327,5.3349,5.3382,5.3387,5.3421,5.3456,5.3448,5.3493,5.351,5.355,5.3562,5.3596,5.3575,5.3594,5.3598,5.3602,5.3606,5.3473,5.3602,5.3602,5.3601,5.3601,5.3601,0,5.335,5.336,5.3396,5.3428,5.3458,5.3435,5.3459,5.3485,5.3525,5.3544,5.3573,5.3618,5.3653,5.3658,5.3691,5.3716,5.3707,5.3725,5.3721,5.3723,5.3625,5.3609,5.3732,5.3732,5.3732,5.3732,5.3732,5.3732,5.3423,5.3482,5.348,5.3546,5.3556,5.3599,5.3614,5.3633,5.3647,5.3699,5.3727,5.3731,5.3744,5.3776,5.3806,5.3807,5.3819,5.384,5.3837,5.3744,5.3731,5.3718,5.3703,5.3844,5.3844,5.3932,5.3933,5.3933]}]]